This is the latest recevied weather packets stored in our database for station/object KE7JVX-3. If no packets are shown the sender has not sent any weather packets the latest 10 day(s).
| Time | Temp. | Humidity | Pressure | Rain* | Wind** | Luminosity | Snow |
|---|---|---|---|---|---|---|---|
| 1777929749 | 7.78° C | 40% | 1010.7 hPa | 0 mm | - | - | - |
| 1777929430 | 7.78° C | 41% | 1010.6 hPa | 0 mm | - | - | - |
| 1777929151 | 7.78° C | 41% | 1010.6 hPa | 0 mm | - | - | - |
| 1777928548 | 8.33° C | 42% | 1010.8 hPa | 0 mm | - | - | - |
| 1777927950 | 8.33° C | 42% | 1010.7 hPa | 0 mm | - | - | - |
| 1777927349 | 8.33° C | 39% | 1010.8 hPa | 0 mm | - | - | - |
| 1777926750 | 8.33° C | 38% | 1010.8 hPa | 0 mm | - | - | - |
| 1777926154 | 8.33° C | 38% | 1010.6 hPa | 0 mm | - | - | - |
| 1777925549 | 8.33° C | 35% | 1010.6 hPa | 0 mm | - | - | - |
| 1777924949 | 8.33° C | 32% | 1010.6 hPa | 0 mm | - | - | - |
| 1777924349 | 8.33° C | 32% | 1010.5 hPa | 0 mm | - | - | - |
| 1777923748 | 8.33° C | 32% | 1010.6 hPa | 0 mm | - | - | - |
| 1777923149 | 8.33° C | 32% | 1010.6 hPa | 0 mm | - | - | - |
| 1777922549 | 8.33° C | 32% | 1010.7 hPa | 0 mm | - | - | - |
| 1777921949 | 8.33° C | 31% | 1010.6 hPa | 0 mm | - | - | - |
| 1777921349 | 8.33° C | 34% | 1010.7 hPa | 0 mm | - | - | - |
| 1777920749 | 8.33° C | 37% | 1010.8 hPa | 0 mm | - | - | - |
| 1777920148 | 8.33° C | 33% | 1010.7 hPa | 0 mm | - | - | - |
| 1777919549 | 7.78° C | 34% | 1010.9 hPa | 0 mm | - | - | - |
| 1777918949 | 8.33° C | 37% | 1011 hPa | 0 mm | - | - | - |
| 1777918349 | 7.78° C | 37% | 1011 hPa | 0 mm | - | - | - |
| 1777917748 | 7.78° C | 34% | 1010.9 hPa | 0 mm | - | - | - |
| 1777917149 | 7.22° C | 34% | 1010.9 hPa | 0 mm | - | - | - |
| 1777916549 | 7.22° C | 41% | 1010.9 hPa | 0 mm | - | - | - |
| 1777915950 | 7.22° C | 38% | 1010.9 hPa | 0 mm | - | - | - |
* Rain latest hour (hover to see other rain measurements)
** Current wind speed in m/s (hover to see current wind gust speed)